Weather History for KONL - January, 2014

Change the Weather History Date:

Monday, January 27, 2014

  Actual Average Record
Temperature  
Mean Temperature 4 °F -  
Max Temperature 11 °F 30 °F 61 °F (2015)
Min Temperature -3 °F 10 °F -24 °F (1963)
Degree Days  
Heating Degree Days 61    
Moisture  
Dew Point -11 °F    
Average Humidity 54    
Maximum Humidity 73    
Minimum Humidity 29    
Precipitation  
Precipitation 0.00 in - - ()
Sea Level Pressure  
Sea Level Pressure 30.35 in    
Wind  
Wind Speed 11 mph (NW)    
Max Wind Speed 21 mph    
Max Gust Speed 28 mph    
Visibility 10 miles    
Events      
Averages and records for this station are not official NWS values.
T = Trace of Precipitation, MM = Missing Value Source: NWS Daily Summary

Daily Weather History Graph

Daily Weather History Graph

Search for Another Location

Airport or City:

Trip Planner

Search our weather history database for the weather conditions in past years. The results will help you decide how hot, cold, wet, or windy it might be!

Date:

Astronomy

Jan. 27, 2014 Rise Set
Actual Time 7:53 AM CST 5:42 PM CST
Civil Twilight 7:23 AM CST 6:12 PM CST
Nautical Twilight 6:49 AM CST 6:46 PM CST
Astronomical Twilight 6:16 AM CST 7:19 PM CST
Moon 4:37 AM CST (1/27) 2:28 PM CST (1/27)
Length of Visible Light 10h 49m
Length of Day
9h 48m
Waning Crescent, 14% of the Moon is Illuminated
Jan 27
Waning Crescent
Jan 30
New
Feb 6
First Quarter
Feb 14
Full
Feb 22
Last Quarter

Hourly Weather History & Observations

Time (CST) Temp. Windchill Dew Point Humidity Pressure Visibility Wind Dir Wind Speed Gust Speed Precip Events Conditions
12:15 AM 3.4 °F -16.8 °F -9.4 °F 55% 30.30 in 10.0 mi NNW 18.4 mph - N/A   Clear
12:35 AM 3.2 °F -18.1 °F -10.1 °F 54% 30.30 in 10.0 mi NNW 20.7 mph 27.6 mph N/A   Clear
12:55 AM 3.0 °F -17.3 °F -10.5 °F 53% 30.30 in 10.0 mi NNW 18.4 mph 26.5 mph N/A   Clear
1:15 AM 2.3 °F -17.7 °F -10.5 °F 55% 30.30 in 10.0 mi NNW 17.3 mph 23.0 mph N/A   Clear
1:35 AM 2.3 °F -17.7 °F -10.3 °F 56% 30.29 in 10.0 mi NNW 17.3 mph - N/A   Clear
1:55 AM 1.8 °F -16.4 °F -9.6 °F 59% 30.29 in 10.0 mi North 13.8 mph - N/A   Clear
2:15 AM 1.4 °F -13.5 °F -9.4 °F 61% 30.30 in 10.0 mi NNW 9.2 mph - N/A   Clear
2:35 AM 0.5 °F -15.6 °F -8.9 °F 65% 30.30 in 10.0 mi NNW 10.4 mph - N/A   Clear
2:55 AM 0.3 °F -12.6 °F -8.7 °F 66% 30.31 in 10.0 mi NW 6.9 mph - N/A   Clear
3:15 AM 0.5 °F -14.6 °F -8.5 °F 66% 30.32 in 10.0 mi NW 9.2 mph - N/A   Clear
3:35 AM -0.4 °F -14.7 °F -8.5 °F 69% 30.33 in 10.0 mi NNW 8.1 mph - N/A   Clear
3:55 AM -0.8 °F -16.2 °F -8.5 °F 70% 30.32 in 10.0 mi NW 9.2 mph - N/A   Clear
4:15 AM -0.4 °F -17.6 °F -8.0 °F 70% 30.32 in 10.0 mi NNW 11.5 mph - N/A   Clear
4:35 AM 0.1 °F -17.7 °F -7.6 °F 70% 30.33 in 10.0 mi NNW 12.7 mph - N/A   Clear
4:55 AM 0.1 °F -17.7 °F -7.6 °F 70% 30.34 in 10.0 mi NNW 12.7 mph - N/A   Clear
5:15 AM -0.4 °F -18.4 °F -7.8 °F 71% 30.34 in 10.0 mi NW 12.7 mph - N/A   Clear
5:35 AM -0.0 °F -18.0 °F -8.5 °F 68% 30.34 in 10.0 mi NW 12.7 mph - N/A   Clear
5:55 AM -0.4 °F -17.6 °F -9.2 °F 66% 30.35 in 10.0 mi NNW 11.5 mph - N/A   Clear
6:15 AM -1.1 °F -15.5 °F -9.8 °F 67% 30.35 in 10.0 mi NNW 8.1 mph - N/A   Clear
6:35 AM -2.2 °F -16.8 °F -10.3 °F 68% 30.35 in 10.0 mi NW 8.1 mph - N/A   Clear
6:55 AM -2.4 °F -18.2 °F -10.3 °F 69% 30.35 in 10.0 mi NW 9.2 mph - N/A   Scattered Clouds
7:15 AM -2.7 °F -16.2 °F -10.3 °F 70% 30.36 in 10.0 mi NW 6.9 mph - N/A   Scattered Clouds
7:35 AM -3.3 °F -15.4 °F -9.9 °F 73% 30.37 in 10.0 mi WNW 5.8 mph - N/A   Scattered Clouds
7:55 AM -2.6 °F -17.3 °F -9.4 °F 73% 30.38 in 10.0 mi NW 8.1 mph - N/A   Clear
8:15 AM -2.2 °F -14.2 °F -9.4 °F 71% 30.38 in 10.0 mi NW 5.8 mph - N/A   Clear
8:35 AM -1.3 °F -14.5 °F -8.5 °F 72% 30.39 in 10.0 mi NW 6.9 mph - N/A   Clear
8:55 AM 0.3 °F -15.8 °F -8.3 °F 67% 30.39 in 10.0 mi NW 10.4 mph - N/A   Clear
9:15 AM 1.0 °F -16.6 °F -8.5 °F 64% 30.40 in 10.0 mi NW 12.7 mph - N/A   Clear
9:35 AM 1.9 °F -16.2 °F -8.1 °F 63% 30.41 in 10.0 mi NW 13.8 mph - N/A   Clear
9:55 AM 2.3 °F -16.4 °F -7.8 °F 63% 30.41 in 10.0 mi NNW 15.0 mph - N/A   Clear
10:15 AM 3.2 °F -15.3 °F -8.0 °F 60% 30.41 in 10.0 mi NNW 15.0 mph - N/A   Scattered Clouds
10:35 AM 3.7 °F -13.2 °F -8.7 °F 56% 30.42 in 10.0 mi NW 12.7 mph - N/A   Scattered Clouds
10:55 AM 4.6 °F -12.8 °F -9.6 °F 52% 30.41 in 10.0 mi NW 13.8 mph - N/A   Scattered Clouds
11:15 AM 4.5 °F -8.7 °F -11.4 °F 48% 30.41 in 10.0 mi NW 8.1 mph 17.3 mph N/A   Clear
11:35 AM 5.4 °F -11.1 °F -12.3 °F 44% 30.42 in 10.0 mi NNW 12.7 mph 19.6 mph N/A   Clear
11:55 AM 6.4 °F -8.2 °F -11.4 °F 44% 30.41 in 10.0 mi NW 10.4 mph 18.4 mph N/A   Clear
12:15 PM 6.8 °F -6.9 °F -11.9 °F 42% 30.40 in 10.0 mi NNW 9.2 mph - N/A   Clear
12:35 PM 8.4 °F -5.7 °F -10.7 °F 42% 30.39 in 10.0 mi NW 10.4 mph 20.7 mph N/A   Clear
12:55 PM 8.4 °F -5.7 °F -11.7 °F 40% 30.38 in 10.0 mi WNW 10.4 mph - N/A   Clear
1:15 PM 9.0 °F -5.1 °F -12.1 °F 38% 30.37 in 10.0 mi NW 10.4 mph - N/A   Clear
1:35 PM 9.3 °F -5.4 °F -14.8 °F 33% 30.36 in 10.0 mi NW 11.5 mph 18.4 mph N/A   Clear
1:55 PM 10.2 °F -5.0 °F -16.1 °F 30% 30.35 in 10.0 mi WNW 12.7 mph 19.6 mph N/A   Clear
2:15 PM 10.4 °F -4.8 °F -15.7 °F 30% 30.35 in 10.0 mi WNW 12.7 mph 18.4 mph N/A   Clear
2:35 PM 10.8 °F -5.6 °F -15.7 °F 30% 30.35 in 10.0 mi NNW 15.0 mph - N/A   Clear
2:55 PM 10.6 °F -5.8 °F -15.5 °F 30% 30.35 in 10.0 mi NW 15.0 mph 18.4 mph N/A   Clear
3:15 PM 11.1 °F -3.2 °F -15.7 °F 29% 30.34 in 10.0 mi NW 11.5 mph 18.4 mph N/A   Clear
3:35 PM 11.3 °F -1.3 °F -14.6 °F 30% 30.34 in 10.0 mi NNW 9.2 mph - N/A   Clear
3:55 PM 11.1 °F -3.2 °F -14.4 °F 31% 30.34 in 10.0 mi NW 11.5 mph 16.1 mph N/A   Clear
4:15 PM 11.1 °F -3.9 °F -13.7 °F 32% 30.34 in 10.0 mi NW 12.7 mph 17.3 mph N/A   Clear
4:35 PM 10.6 °F -2.2 °F -13.4 °F 33% 30.35 in 10.0 mi NW 9.2 mph - N/A   Clear
4:55 PM 10.0 °F -1.9 °F -12.6 °F 35% 30.34 in 10.0 mi NNW 8.1 mph - N/A   Clear
5:15 PM 9.1 °F -3.0 °F -11.7 °F 38% 30.34 in 10.0 mi NNW 8.1 mph - N/A   Clear
5:35 PM 6.8 °F -3.5 °F -11.2 °F 44% 30.35 in 10.0 mi NNW 5.8 mph - N/A   Clear
5:55 PM 5.2 °F -5.4 °F -11.0 °F 47% 30.35 in 10.0 mi NNW 5.8 mph - N/A   Clear
6:15 PM 4.6 °F -2.5 °F -11.2 °F 48% 30.35 in 10.0 mi North 3.5 mph - N/A   Clear
6:35 PM 5.0 °F -4.1 °F -11.2 °F 47% 30.36 in 10.0 mi North 4.6 mph - N/A   Clear
6:55 PM 4.1 °F -6.7 °F -11.2 °F 49% 30.35 in 10.0 mi North 5.8 mph - N/A   Clear
7:15 PM 3.9 °F -6.9 °F -10.7 °F 51% 30.35 in 10.0 mi North 5.8 mph - N/A   Clear
7:35 PM 3.7 °F -5.5 °F -10.5 °F 52% 30.35 in 10.0 mi North 4.6 mph - N/A   Clear
7:55 PM 3.6 °F - -10.8 °F 51% 30.35 in 10.0 mi Calm Calm - N/A   Clear
8:15 PM 3.9 °F - -10.7 °F 51% 30.35 in 10.0 mi Calm Calm - N/A   Clear
8:35 PM 2.3 °F - -10.7 °F 55% 30.35 in 10.0 mi Calm Calm - N/A   Clear
8:55 PM 2.7 °F - -10.7 °F 54% 30.35 in 10.0 mi Calm Calm - N/A   Clear
9:15 PM 2.5 °F - -10.5 °F 55% 30.35 in 10.0 mi Calm Calm - N/A   Clear
9:35 PM 3.0 °F - -10.3 °F 54% 30.36 in 10.0 mi Calm Calm - N/A   Clear
9:55 PM 1.8 °F - -10.5 °F 57% 30.35 in 10.0 mi Calm Calm - N/A   Clear
10:15 PM 1.8 °F - -10.7 °F 56% 30.36 in 10.0 mi Calm Calm - N/A   Clear
10:35 PM 0.1 °F - -10.7 °F 60% 30.35 in 10.0 mi Calm Calm - N/A   Clear
10:55 PM 0.9 °F - -10.7 °F 58% 30.35 in 10.0 mi Calm Calm - N/A   Clear
11:15 PM -0.4 °F - -11.2 °F 60% 30.35 in 10.0 mi Calm Calm - N/A   Clear
11:35 PM -0.6 °F -10.6 °F -11.6 °F 60% 30.36 in 10.0 mi West 4.6 mph - N/A   Clear
11:55 PM -0.9 °F -8.9 °F -11.2 °F 62% 30.35 in 10.0 mi West 3.5 mph - N/A   Clear